QPF
0.00 0.00 0.00 0.00 0.00 0.00 0.00 0.00 0.00 0.00 0.00 0.00 0.00 0.01 0.03 0.02 0.01 0.00 0.00 0.00 0.00 0.00 0.00 0.00 0.00 0.00 0.00 0.00 0.00 0.00 0.00 0.00 0.00 0.00 0.00 0.00 0.00 0.00 0.00 0.00 0.00 0.00 0.00 0.00 0.00
0.00 0.00 0.00 0.00 0.00 0.00 0.00 0.00 0.00 0.00 0.00 0.00 0.00 0.00 0.00 0.00 0.00 0.00 0.00 0.00 0.00 0.00 0.00 0.00 0.00 0.00 0.00 0.00 0.00 0.00 0.00 0.00 0.00 0.00 0.00 0.00 0.00 0.00 0.00 0.00 0.00 0.00 0.00 0.00 0.00
0.00 0.00 0.00 0.00 0.00 0.00 0.00 0.00 0.00 0.00 0.00 0.00 0.00 0.00 0.00 0.00 0.00 0.00 0.00 0.00 0.00 0.00 0.00 0.00 0.00 0.00 0.00 0.00 0.00 0.00 0.00 0.00 0.00 0.00 0.00 0.00 0.00 0.00 0.00 0.00 0.00 0.00 0.00 0.00 0.00
0.00 0.00 0.00 0.00 0.00 0.00 0.00 0.00 0.00 0.00 0.00 0.00 0.00 0.00 0.00 0.00 0.00 0.00 0.00 0.00 0.00 0.00 0.00 0.00 0.00 0.00 0.00 0.00 0.00 0.00 0.00 0.00 0.00 0.00 0.00 0.00 0.00 0.00 0.00 0.00 0.00 0.00 0.00 0.00 0.00
0.00 0.00 0.00 0.00 0.00 0.00 0.00 0.00 0.00 0.00 0.00 0.00 0.00 0.00 0.00 0.00 0.00 0.00 0.00 0.00 0.00 0.00 0.00 0.00 0.00 0.00 0.00 0.00 0.00 0.00 0.00 0.00 0.00 0.00 0.00 0.00 0.00 0.00 0.00 0.00 0.00 0.00 0.00 0.00 0.00
0.00 0.00 0.00 0.00 0.00 0.00 0.00 0.00 0.00 0.00 0.00 0.00 0.00 0.00 0.00 0.00 0.00 0.00 0.00 0.00 0.00 0.00 0.00 0.00 0.00 0.00 0.00 0.00 0.00 0.00 0.00 0.00 0.00 0.00 0.00 0.00 0.00 0.00 0.00 0.00 0.00 0.00 0.00 0.00 0.00
0.01 0.00 0.00 0.00 0.00 0.00 0.00 0.00 0.00 0.00 0.00 0.00 0.00 0.00 0.00 0.00 0.00 0.00 0.00 0.00 0.00 0.00 0.00 0.00 0.00 0.01 0.01 0.00 0.00 0.00 0.00 0.00 0.00 0.00 0.00 0.00 0.00 0.00 0.00 0.00 0.00 0.00 0.00 0.00 0.00
0.02 0.01 0.00 0.00 0.00 0.00 0.00 0.00 0.00 0.00 0.00 0.00 0.00 0.00 0.00 0.00 0.00 0.00 0.00 0.00 0.00 0.00 0.00 0.00 0.00 0.00 0.00 0.00 0.00 0.00 0.00 0.00 0.00 0.00 0.00 0.01 0.00 0.00 0.00 0.00 0.00 0.00 0.00 0.00 0.00
0.02 0.01 0.00 0.00 0.00 0.01 0.00 0.00 0.00 0.00 0.00 0.00 0.00 0.00 0.00 0.00 0.00 0.00 0.00 0.00 0.00 0.00 0.00 0.00 0.00 0.00 0.00 0.00 0.00 0.00 0.00 0.00 0.00 0.00 0.00 0.00 0.00 0.00 0.00 0.00 0.00 0.00 0.00 0.00 0.00
0.04 0.03 0.01 0.00 0.00 0.01 0.01 0.00 0.00 0.00 0.01 0.01 0.00 0.00 0.00 0.00 0.00 0.00 0.00 0.00 0.00 0.00 0.00 0.00 0.00 0.00 0.00 0.01 0.00 0.00 0.00 0.00 0.00 0.00 0.00 0.00 0.00 0.00 0.00 0.00 0.00 0.00 0.00 0.00 0.00
0.03 0.04 0.03 0.01 0.01 0.01 0.00 0.00 0.00 0.00 0.01 0.00 0.00 0.00 0.00 0.00 0.00 0.00 0.00 0.00 0.00 0.00 0.00 0.00 0.00 0.00 0.00 0.00 0.00 0.00 0.00 0.00 0.00 0.00 0.00 0.00 0.00 0.00 0.00 0.00 0.00 0.00 0.00 0.00 0.00
0.03 0.04 0.03 0.01 0.02 0.01 0.00 0.00 0.00 0.00 0.00 0.00 0.00 0.00 0.00 0.00 0.00 0.00 0.00 0.00 0.00 0.00 0.00 0.00 0.00 0.00 0.00 0.00 0.00 0.00 0.00 0.00 0.00 0.00 0.00 0.00 0.00 0.00 0.00 0.00 0.00 0.00 0.00 0.00 0.00
0.03 0.05 0.06 0.03 0.02 0.01 0.00 0.00 0.00 0.00 0.00 0.00 0.00 0.00 0.00 0.00 0.00 0.00 0.00 0.00 0.00 0.00 0.00 0.00 0.00 0.00 0.00 0.00 0.00 0.00 0.00 0.00 0.00 0.00 0.00 0.00 0.00 0.00 0.00 0.00 0.00 0.00 0.00 0.00 0.00
0.04 0.07 0.05 0.03 0.01 0.00 0.00 0.00 0.00 0.00 0.00 0.00 0.00 0.00 0.00 0.01 0.00 0.00 0.00 0.00 0.00 0.00 0.00 0.00 0.00 0.00 0.00 0.00 0.00 0.00 0.00 0.00 0.00 0.00 0.00 0.02 0.01 0.00 0.00 0.00 0.00 0.00 0.00 0.00 0.00
0.06 0.08 0.02 0.00 0.00 0.00 0.00 0.00 0.00 0.00 0.00 0.00 0.00 0.00 0.00 0.00 0.00 0.00 0.00 0.00 0.00 0.00 0.00 0.00 0.00 0.00 0.00 0.00 0.00 0.00 0.00 0.00 0.00 0.00 0.01 0.00 0.01 0.00 0.00 0.00 0.00 0.00 0.00 0.00 0.00
0.08 0.08 0.02 0.00 0.00 0.00 0.00 0.00 0.00 0.00 0.00 0.00 0.00 0.00 0.00 0.00 0.00 0.00 0.00 0.00 0.00 0.01 0.00 0.00 0.00 0.00 0.00 0.00 0.00 0.00 0.00 0.00 0.00 0.02 0.02 0.00 0.01 0.00 0.00 0.00 0.00 0.00 0.00 0.00 0.00
0.07 0.06 0.02 0.00 0.00 0.00 0.00 0.00 0.00 0.00 0.00 0.00 0.00 0.00 0.00 0.00 0.00 0.00 0.01 0.00 0.00 0.00 0.00 0.00 0.00 0.00 0.00 0.00 0.00 0.01 0.02 0.01 0.00 0.01 0.00 0.00 0.00 0.00 0.00 0.00 0.00 0.00 0.00 0.00 0.00
0.07 0.06 0.03 0.01 0.00 0.00 0.00 0.00 0.00 0.00 0.00 0.00 0.00 0.00 0.00 0.00 0.00 0.01 0.02 0.01 0.01 0.00 0.00 0.00 0.00 0.00 0.00 0.00 0.00 0.00 0.00 0.00 0.00 0.00 0.00 0.00 0.00 0.00 0.00 0.00 0.00 0.00 0.00 0.00 0.00
0.06 0.07 0.04 0.00 0.00 0.00 0.00 0.00 0.00 0.00 0.00 0.00 0.00 0.00 0.00 0.00 0.00 0.01 0.01 0.00 0.00 0.00 0.00 0.00 0.00 0.00 0.00 0.00 0.00 0.01 0.02 0.00 0.01 0.01 0.01 0.00 0.00 0.00 0.00 0.00 0.00 0.00 0.00 0.00 0.00
0.06 0.09 0.03 0.00 0.00 0.00 0.00 0.00 0.00 0.00 0.00 0.00 0.00 0.00 0.00 0.00 0.00 0.00 0.00 0.00 0.00 0.00 0.00 0.00 0.00 0.00 0.00 0.00 0.00 0.01 0.02 0.01 0.01 0.02 0.01 0.00 0.00 0.00 0.00 0.00 0.00 0.00 0.00 0.00 0.00
0.07 0.06 0.01 0.00 0.00 0.00 0.00 0.00 0.00 0.00 0.00 0.00 0.00 0.00 0.01 0.00 0.00 0.00 0.00 0.00 0.00 0.00 0.00 0.00 0.00 0.00 0.00 0.00 0.00 0.00 0.01 0.02 0.00 0.01 0.02 0.01 0.00 0.00 0.00 0.00 0.00 0.00 0.00 0.00 0.00
0.06 0.02 0.01 0.00 0.00 0.00 0.00 0.00 0.00 0.00 0.00 0.00 0.00 0.01 0.01 0.00 0.00 0.00 0.00 0.00 0.00 0.00 0.00 0.00 0.00 0.00 0.00 0.00 0.00 0.00 0.00 0.01 0.00 0.00 0.01 0.01 0.00 0.00 0.00 0.00 0.00 0.00 0.00 0.00 0.00
0.03 0.02 0.00 0.00 0.00 0.00 0.00 0.00 0.00 0.00 0.00 0.00 0.00 0.00 0.00 0.00 0.00 0.00 0.00 0.00 0.00 0.00 0.00 0.00 0.00 0.00 0.01 0.02 0.01 0.00 0.00 0.01 0.01 0.00 0.00 0.00 0.00 0.00 0.00 0.00 0.00 0.00 0.00 0.00 0.00
0.02 0.01 0.01 0.01 0.00 0.00 0.00 0.00 0.00 0.00 0.00 0.01 0.01 0.01 0.01 0.00 0.00 0.00 0.00 0.00 0.00 0.00 0.00 0.00 0.00 0.00 0.00 0.02 0.01 0.00 0.00 0.00 0.00 0.01 0.00 0.00 0.01 0.00 0.00 0.00 0.00 0.00 0.00 0.00 0.00
0.01 0.00 0.00 0.00 0.00 0.00 0.00 0.00 0.00 0.00 0.00 0.00 0.01 0.01 0.00 0.00 0.00 0.00 0.00 0.00 0.00 0.00 0.00 0.00 0.00 0.00 0.00 0.00 0.00 0.00 0.00 0.00 0.00 0.00 0.01 0.01 0.01 0.01 0.00 0.00 0.00 0.00 0.00 0.00 0.00
0.00 0.00 0.00 0.00 0.00 0.00 0.00 0.00 0.00 0.00 0.00 0.00 0.00 0.00 0.00 0.00 0.00 0.00 0.00 0.00 0.00 0.00 0.00 0.00 0.00 0.00 0.00 0.00 0.00 0.00 0.00 0.00 0.00 0.00 0.01 0.00 0.00 0.00 0.00 0.00 0.00 0.00 0.00 0.00 0.00
0.00 0.00 0.00 0.00 0.00 0.00 0.00 0.00 0.00 0.00 0.00 0.00 0.00 0.00 0.00 0.00 0.00 0.00 0.00 0.00 0.00 0.00 0.00 0.00 0.00 0.00 0.00 0.00 0.01 0.01 0.00 0.00 0.00 0.00 0.00 0.00 0.00 0.00 0.00 0.00 0.00 0.00 0.00 0.00 0.00
MSLP
1016.14 1016.22 1015.90 1016.03 1015.88 1015.84 1015.80 1015.55 1015.46 1015.21 1014.96 1014.93 1014.63 1014.53 1014.44 1014.75 1015.04 1015.28 1015.18 1014.13 1013.89 1013.54 1013.53 1013.56 1013.47 1013.58 1013.50 1013.77 1013.71 1013.91 1014.44 1013.86 1013.26 1012.61 1011.16 1010.07 1009.66 1008.68 1008.20 1007.98 1007.81 1007.91 1008.24 1008.01 1008.09
1015.81 1015.87 1015.78 1015.82 1015.78 1015.70 1015.73 1015.59 1015.39 1015.06 1014.90 1014.93 1014.84 1014.61 1014.61 1014.84 1015.01 1014.63 1013.85 1013.63 1013.51 1013.46 1013.72 1013.80 1013.89 1014.02 1014.08 1013.90 1013.87 1013.93 1013.50 1012.67 1011.94 1011.47 1010.63 1010.19 1010.02 1009.34 1008.84 1008.40 1008.21 1008.09 1008.13 1008.22 1008.44
1015.46 1015.52 1015.53 1015.63 1015.64 1015.53 1015.51 1015.45 1015.21 1014.97 1014.89 1014.90 1014.97 1014.73 1014.78 1014.87 1014.98 1013.56 1012.85 1012.93 1013.24 1013.39 1013.76 1013.92 1014.09 1014.34 1014.40 1014.00 1013.79 1013.26 1012.33 1012.23 1011.57 1011.08 1010.72 1010.25 1010.12 1009.61 1009.12 1008.93 1008.37 1008.25 1008.53 1008.54 1008.96
1014.93 1015.18 1015.20 1015.28 1015.33 1015.30 1015.33 1015.24 1015.19 1014.97 1015.00 1014.98 1014.94 1014.91 1014.84 1015.13 1014.66 1012.82 1012.53 1012.35 1012.51 1013.12 1013.81 1014.02 1014.19 1014.45 1014.53 1014.17 1013.63 1013.23 1012.32 1012.13 1011.57 1011.14 1010.89 1010.50 1010.01 1009.88 1009.51 1008.97 1008.36 1008.17 1008.26 1008.46 1008.75
1014.45 1014.63 1014.89 1014.94 1014.97 1015.03 1015.05 1015.08 1015.03 1014.95 1014.96 1014.99 1014.95 1015.00 1015.00 1015.03 1014.07 1012.81 1012.51 1012.60 1012.69 1012.90 1013.66 1014.14 1014.32 1014.33 1014.34 1014.04 1013.78 1013.15 1012.65 1012.05 1011.56 1011.18 1010.86 1010.46 1010.10 1009.90 1009.22 1008.95 1008.48 1008.09 1008.05 1008.16 1008.28
1013.95 1014.13 1014.37 1014.56 1014.69 1014.75 1014.78 1014.83 1014.79 1014.87 1014.93 1015.06 1015.02 1015.02 1015.17 1014.88 1013.10 1012.70 1012.72 1012.82 1012.94 1013.26 1013.68 1013.97 1013.85 1013.88 1014.12 1013.95 1013.87 1012.99 1012.68 1012.09 1011.55 1011.11 1010.85 1010.53 1009.84 1009.83 1008.97 1008.67 1008.60 1008.32 1008.07 1007.98 1007.96
1013.28 1013.58 1013.90 1014.13 1014.31 1014.45 1014.51 1014.57 1014.70 1014.68 1014.86 1014.98 1015.07 1015.12 1015.12 1013.78 1012.68 1012.48 1012.90 1013.09 1012.99 1013.21 1013.48 1013.66 1013.71 1014.03 1013.92 1013.79 1013.44 1013.25 1012.89 1012.11 1011.54 1011.13 1010.73 1010.47 1009.22 1008.70 1008.99 1008.67 1008.42 1008.15 1007.94 1007.76 1007.75
1012.74 1013.01 1013.44 1013.73 1013.92 1014.14 1014.23 1014.37 1014.58 1014.69 1014.80 1014.84 1015.01 1015.21 1014.60 1012.90 1012.56 1012.84 1012.63 1013.01 1012.79 1012.94 1013.15 1013.35 1013.59 1013.90 1013.86 1013.72 1013.65 1013.63 1013.32 1012.46 1011.20 1010.92 1010.56 1010.72 1007.01 1008.33 1008.39 1008.49 1008.46 1008.18 1007.98 1007.91 1007.66
1012.13 1012.42 1012.84 1013.27 1013.67 1013.81 1013.99 1014.28 1014.48 1014.64 1014.66 1014.74 1015.11 1015.17 1013.96 1012.62 1012.59 1012.38 1012.65 1013.08 1012.85 1012.91 1013.00 1013.02 1013.51 1013.92 1013.97 1014.17 1014.47 1014.15 1013.63 1012.72 1011.81 1010.81 1010.62 1009.89 1007.33 1008.22 1008.03 1008.16 1008.02 1007.84 1007.63 1007.71 1007.74
1011.38 1011.75 1012.22 1012.71 1013.17 1013.53 1013.86 1014.29 1014.43 1014.55 1014.55 1014.60 1014.58 1015.15 1013.48 1012.48 1012.10 1012.08 1012.29 1012.85 1013.26 1013.24 1013.47 1013.67 1013.92 1014.20 1014.56 1014.62 1013.71 1013.86 1013.79 1012.98 1012.33 1011.48 1010.76 1009.87 1008.22 1008.43 1008.06 1007.82 1007.52 1007.37 1007.02 1007.40 1007.66
1010.66 1011.02 1011.58 1012.16 1012.68 1013.21 1013.99 1014.67 1015.02 1014.88 1014.23 1013.44 1013.42 1012.98 1012.35 1012.04 1011.89 1012.08 1012.32 1012.85 1013.40 1013.73 1014.03 1014.09 1014.45 1014.13 1014.28 1014.31 1014.18 1014.01 1013.79 1013.37 1012.94 1012.29 1011.61 1010.25 1008.73 1008.06 1007.71 1007.17 1007.14 1006.96 1007.03 1007.11 1007.32
1009.87 1010.33 1010.91 1011.52 1012.21 1012.94 1013.67 1013.92 1013.46 1013.31 1013.49 1013.10 1012.88 1012.88 1012.32 1012.12 1012.37 1012.14 1012.22 1013.23 1013.60 1013.81 1014.36 1014.79 1013.87 1014.11 1014.23 1014.37 1014.39 1014.22 1013.84 1013.22 1013.25 1012.66 1011.78 1010.41 1008.84 1008.04 1007.01 1006.24 1006.33 1006.22 1006.40 1006.71 1007.25
1009.25 1009.51 1010.20 1011.00 1011.89 1012.97 1013.22 1013.34 1013.23 1013.15 1013.45 1012.69 1012.24 1012.31 1012.44 1012.33 1012.18 1012.01 1012.30 1012.70 1013.30 1013.87 1014.28 1014.19 1013.56 1013.66 1014.05 1014.02 1014.21 1013.92 1013.55 1013.91 1013.82 1013.01 1011.58 1011.02 1008.29 1007.52 1006.11 1005.86 1005.61 1005.15 1005.42 1005.98 1006.44
1008.59 1008.85 1009.61 1010.70 1012.22 1012.61 1012.97 1013.11 1013.25 1013.34 1013.50 1012.50 1012.04 1011.77 1011.90 1011.99 1011.88 1011.39 1011.59 1012.26 1013.11 1013.44 1014.03 1013.92 1013.70 1013.48 1013.45 1013.49 1013.85 1013.20 1013.18 1013.68 1013.71 1013.55 1012.60 1011.29 1008.39 1006.47 1005.51 1004.65 1004.63 1004.27 1004.95 1005.39 1006.11
1007.90 1008.32 1009.05 1009.84 1010.61 1011.82 1011.84 1012.60 1013.19 1013.85 1013.49 1012.10 1011.94 1011.79 1011.73 1011.86 1011.45 1011.25 1011.19 1011.76 1012.40 1012.98 1013.70 1013.15 1012.90 1013.07 1012.92 1012.79 1013.27 1012.83 1013.27 1013.44 1013.57 1013.46 1012.91 1011.38 1010.65 1005.66 1005.16 1004.05 1003.34 1003.07 1003.83 1004.47 1005.19
1007.61 1007.74 1008.43 1009.81 1010.13 1010.68 1011.57 1012.44 1013.51 1014.11 1012.41 1011.73 1011.73 1012.00 1012.03 1011.75 1011.52 1011.51 1011.66 1012.02 1012.35 1012.87 1012.87 1012.80 1012.56 1012.31 1011.92 1012.05 1012.59 1012.94 1013.45 1013.58 1013.68 1013.80 1012.25 1009.35 1009.99 1004.65 1004.02 1002.76 1002.40 1002.19 1002.92 1003.85 1004.92
1007.00 1007.24 1007.99 1008.71 1009.54 1010.42 1011.51 1012.75 1013.66 1012.84 1011.15 1011.51 1011.51 1011.74 1011.76 1011.59 1011.46 1011.57 1011.89 1012.01 1012.29 1012.65 1012.46 1012.55 1012.48 1012.25 1011.77 1012.01 1012.30 1012.90 1013.56 1013.76 1013.69 1013.02 1009.61 1008.29 1008.45 1003.91 1002.87 1001.82 1001.42 1001.30 1002.23 1003.31 1004.52
1006.81 1006.41 1007.21 1008.18 1008.94 1009.80 1011.30 1012.60 1012.33 1010.55 1010.48 1010.71 1010.97 1011.21 1011.36 1011.15 1011.15 1011.34 1011.62 1011.86 1012.13 1012.36 1012.26 1012.03 1012.07 1011.73 1011.21 1010.86 1011.29 1011.94 1012.55 1012.54 1012.02 1010.99 1009.10 1008.33 1006.09 1002.23 1001.36 1000.79 1000.56 1000.98 1001.49 1002.83 1004.34
1006.22 1005.76 1006.45 1007.91 1008.52 1009.64 1010.75 1011.55 1010.15 1009.58 1009.46 1010.21 1010.77 1010.88 1010.82 1010.77 1011.31 1011.44 1011.24 1010.95 1010.92 1011.48 1011.99 1011.75 1011.42 1010.35 1010.33 1010.53 1010.89 1011.45 1011.49 1010.42 1011.35 1010.11 1009.06 1006.50 1003.83 1002.23 1000.77 1000.16 999.85 1000.48 1001.59 1002.69 1003.95
1005.01 1005.00 1005.52 1006.99 1008.40 1009.55 1010.32 1009.82 1009.26 1008.82 1009.25 1009.84 1009.96 1010.33 1010.26 1010.52 1011.09 1011.15 1010.44 1009.47 1009.77 1009.88 1010.61 1010.97 1011.09 1010.18 1010.17 1010.25 1010.29 1010.18 1010.68 1011.43 1011.61 1010.36 1008.28 1005.16 1003.12 1000.69 999.79 1000.00 1000.28 1000.84 1001.63 1002.99 1004.21
1004.92 1004.07 1005.29 1006.56 1008.15 1009.43 1009.29 1009.12 1008.64 1008.50 1008.66 1009.30 1009.50 1009.69 1009.92 1010.08 1010.24 1010.24 1009.44 1008.63 1008.64 1008.77 1009.94 1010.36 1010.84 1010.13 1009.38 1008.59 1008.67 1009.96 1009.78 1009.55 1009.17 1008.61 1006.86 1004.53 1001.32 999.19 998.82 998.84 1000.32 1001.21 1001.88 1002.58 1003.92
1003.54 1004.62 1005.21 1006.64 1007.76 1008.54 1008.50 1008.14 1008.03 1008.19 1008.63 1008.92 1009.23 1009.20 1009.19 1009.21 1009.36 1009.28 1008.41 1007.62 1006.95 1007.81 1009.08 1009.19 1009.81 1008.91 1007.25 1006.79 1007.67 1008.15 1007.98 1008.60 1007.97 1007.52 1006.61 1005.29 1001.27 998.30 998.37 998.60 999.86 1000.94 1002.21 1003.12 1004.14
1002.90 1004.14 1005.04 1005.66 1006.86 1007.70 1007.67 1007.74 1007.97 1008.07 1008.20 1008.62 1008.55 1008.55 1008.32 1008.37 1008.61 1007.77 1006.88 1005.87 1006.29 1006.82 1007.42 1008.66 1008.80 1008.28 1006.54 1006.06 1006.75 1006.65 1006.84 1007.32 1006.71 1006.50 1005.57 1005.14 1001.54 998.80 998.15 999.40 1000.31 1001.13 1002.43 1003.50 1004.66
1003.11 1004.15 1004.97 1005.41 1005.69 1006.44 1007.15 1007.38 1007.64 1007.78 1007.89 1008.07 1007.87 1007.70 1007.63 1007.55 1007.37 1006.51 1005.99 1005.20 1005.08 1005.71 1006.73 1008.03 1007.90 1007.20 1005.97 1004.69 1004.32 1004.70 1005.30 1005.74 1006.23 1005.71 1005.56 1004.87 1002.60 999.74 999.42 999.97 1000.90 1001.81 1002.51 1003.59 1004.71
1002.51 1003.58 1003.61 1004.23 1005.02 1005.49 1006.33 1006.62 1006.90 1007.25 1007.55 1007.51 1007.28 1006.80 1006.88 1006.60 1006.08 1005.91 1005.25 1004.87 1004.98 1005.45 1006.51 1007.40 1006.86 1006.24 1005.20 1004.52 1004.40 1003.41 1003.00 1003.86 1004.59 1004.81 1005.06 1002.66 1000.85 999.48 999.30 999.94 1000.65 1001.52 1002.78 1003.88 1004.91
1002.85 1002.87 1003.47 1003.67 1004.41 1005.16 1005.66 1005.75 1006.16 1006.60 1006.84 1006.70 1006.37 1005.64 1005.72 1005.52 1004.85 1004.48 1004.19 1004.13 1004.45 1005.66 1006.24 1006.15 1005.73 1005.04 1003.43 1001.95 1002.43 1002.22 1002.10 1002.62 1003.07 1004.10 1004.12 1002.45 999.52 999.06 999.62 1000.07 1001.01 1001.76 1002.77 1003.79 1004.63
1002.70 1002.58 1002.53 1003.57 1003.99 1004.73 1004.77 1005.11 1005.34 1005.71 1005.83 1005.60 1005.33 1005.22 1004.54 1004.12 1004.45 1003.83 1003.62 1003.06 1003.34 1003.99 1004.82 1005.41 1005.00 1003.97 1002.32 1000.97 1001.23 1000.71 1000.07 1001.01 1001.84 1001.63 1001.95 1000.70 999.44 999.09 999.86 1000.54 1001.40 1002.04 1002.68 1003.27 1004.09
Thickness
5593 5595 5601 5599 5602 5604 5607 5611 5613 5618 5620 5621 5625 5628 5630 5629 5626 5625 5624 5634 5639 5644 5646 5647 5649 5648 5651 5649 5653 5654 5631 5636 5651 5656 5675 5686 5687 5703 5715 5710 5718 5721 5716 5727 5730
5591 5591 5594 5594 5596 5598 5600 5603 5606 5612 5615 5615 5617 5621 5622 5621 5620 5623 5626 5630 5633 5636 5637 5636 5634 5636 5634 5640 5641 5635 5634 5647 5664 5669 5673 5676 5675 5684 5694 5701 5705 5711 5717 5719 5721
5586 5587 5589 5589 5590 5593 5595 5598 5602 5606 5608 5609 5609 5613 5613 5613 5611 5622 5629 5628 5627 5628 5628 5628 5628 5627 5626 5632 5634 5640 5644 5652 5662 5668 5670 5669 5666 5679 5683 5685 5700 5702 5703 5710 5711
5582 5583 5585 5585 5587 5589 5590 5593 5595 5599 5600 5602 5604 5605 5607 5603 5600 5623 5623 5625 5625 5622 5617 5616 5616 5615 5618 5621 5632 5627 5646 5649 5656 5660 5659 5660 5669 5662 5676 5688 5702 5705 5704 5704 5705
5578 5579 5580 5582 5583 5585 5587 5588 5590 5593 5594 5595 5597 5597 5597 5594 5602 5616 5618 5617 5617 5615 5608 5605 5604 5607 5609 5617 5621 5624 5634 5643 5648 5651 5654 5658 5655 5657 5668 5685 5694 5701 5703 5699 5704
5574 5575 5575 5577 5578 5580 5582 5584 5586 5586 5587 5588 5589 5589 5586 5582 5606 5609 5609 5608 5607 5604 5600 5600 5602 5603 5603 5609 5610 5623 5626 5632 5638 5643 5645 5645 5652 5652 5669 5679 5683 5690 5696 5697 5698
5571 5571 5571 5571 5573 5575 5577 5578 5578 5579 5579 5581 5582 5581 5576 5586 5602 5604 5599 5597 5600 5597 5593 5596 5597 5594 5601 5603 5611 5614 5611 5621 5628 5633 5635 5641 5646 5653 5664 5672 5674 5683 5690 5692 5696
5564 5565 5565 5565 5566 5567 5570 5571 5571 5571 5572 5573 5574 5573 5570 5590 5595 5592 5592 5588 5591 5591 5590 5591 5590 5587 5589 5597 5594 5595 5599 5602 5626 5627 5630 5628 5652 5657 5663 5663 5666 5673 5680 5683 5691
5559 5559 5559 5559 5558 5560 5562 5563 5563 5564 5565 5566 5565 5564 5565 5584 5584 5586 5583 5576 5581 5581 5581 5584 5580 5576 5579 5577 5574 5579 5579 5593 5606 5623 5622 5626 5650 5652 5658 5658 5663 5670 5674 5679 5684
5553 5553 5553 5553 5552 5553 5553 5553 5554 5556 5559 5560 5562 5555 5569 5575 5579 5578 5576 5571 5566 5568 5566 5563 5559 5557 5555 5563 5576 5585 5573 5585 5588 5604 5607 5615 5632 5638 5650 5652 5660 5669 5679 5674 5680
5546 5547 5546 5545 5545 5545 5542 5540 5540 5545 5553 5566 5567 5567 5572 5572 5572 5569 5567 5561 5555 5553 5546 5548 5538 5549 5558 5556 5562 5564 5567 5569 5576 5583 5583 5601 5618 5629 5641 5650 5650 5655 5663 5669 5675
5538 5538 5539 5537 5536 5536 5535 5534 5544 5552 5550 5557 5559 5559 5561 5564 5559 5558 5557 5545 5541 5537 5532 5530 5539 5546 5545 5544 5548 5552 5555 5564 5564 5569 5576 5588 5605 5618 5637 5650 5652 5659 5663 5664 5668
5524 5529 5530 5529 5526 5526 5529 5531 5537 5542 5540 5556 5552 5552 5549 5551 5551 5547 5545 5538 5533 5528 5525 5519 5537 5537 5534 5536 5534 5540 5546 5544 5545 5554 5571 5573 5598 5610 5636 5641 5651 5659 5667 5662 5670
5510 5518 5518 5516 5515 5515 5520 5524 5527 5532 5524 5548 5543 5546 5545 5544 5542 5546 5543 5536 5526 5523 5516 5517 5524 5526 5526 5525 5524 5529 5543 5538 5537 5537 5539 5558 5581 5604 5626 5640 5645 5660 5660 5661 5668
5500 5506 5507 5512 5513 5512 5518 5518 5518 5517 5494 5537 5536 5539 5538 5538 5539 5535 5535 5525 5515 5514 5504 5506 5511 5511 5512 5521 5520 5526 5529 5526 5527 5527 5530 5550 5547 5608 5620 5634 5650 5666 5667 5664 5669
5492 5499 5502 5498 5507 5510 5509 5509 5505 5483 5485 5531 5532 5521 5523 5525 5529 5524 5518 5512 5507 5501 5505 5502 5508 5510 5515 5516 5513 5512 5510 5511 5511 5510 5520 5565 5549 5603 5622 5641 5653 5667 5661 5662 5665
5484 5494 5499 5499 5503 5502 5500 5496 5485 5473 5537 5529 5526 5519 5517 5519 5516 5510 5501 5497 5495 5494 5485 5485 5488 5498 5505 5501 5502 5499 5495 5487 5491 5494 5529 5564 5548 5601 5626 5643 5657 5667 5660 5661 5664
5480 5496 5498 5498 5498 5499 5494 5489 5475 5524 5530 5532 5527 5521 5514 5518 5513 5506 5498 5490 5483 5477 5481 5484 5479 5481 5499 5504 5497 5492 5493 5480 5479 5494 5533 5554 5558 5610 5636 5648 5658 5662 5664 5658 5656
5482 5495 5494 5491 5495 5494 5491 5489 5493 5526 5535 5525 5517 5510 5512 5513 5501 5494 5492 5491 5490 5478 5473 5475 5475 5497 5500 5497 5495 5485 5480 5518 5490 5518 5523 5553 5580 5608 5634 5641 5655 5655 5654 5657 5655
5486 5499 5498 5494 5490 5487 5485 5502 5513 5531 5523 5519 5517 5510 5511 5505 5493 5489 5490 5500 5496 5489 5483 5476 5455 5486 5489 5487 5488 5492 5495 5476 5473 5478 5515 5560 5566 5602 5633 5641 5643 5648 5652 5650 5647
5480 5499 5496 5492 5486 5479 5486 5501 5516 5524 5523 5516 5513 5512 5507 5501 5497 5491 5493 5505 5497 5497 5483 5479 5467 5484 5484 5483 5498 5482 5478 5490 5504 5510 5521 5553 5578 5630 5646 5651 5642 5644 5647 5648 5643
5490 5481 5489 5484 5484 5479 5492 5512 5522 5519 5517 5513 5506 5507 5508 5508 5496 5490 5498 5512 5517 5507 5485 5495 5479 5482 5501 5512 5500 5485 5497 5498 5503 5513 5526 5538 5580 5634 5643 5652 5647 5643 5641 5640 5637
5493 5493 5486 5490 5483 5485 5502 5511 5512 5514 5514 5505 5506 5506 5512 5512 5506 5503 5516 5531 5523 5516 5508 5491 5490 5495 5513 5512 5500 5496 5509 5504 5528 5529 5534 5543 5583 5628 5639 5634 5636 5637 5634 5634 5630
5487 5482 5484 5489 5498 5498 5498 5505 5506 5507 5510 5505 5507 5512 5515 5512 5514 5521 5523 5534 5533 5527 5513 5497 5500 5510 5528 5538 5543 5536 5530 5531 5524 5527 5537 5539 5576 5622 5628 5631 5628 5629 5632 5630 5627
5491 5490 5501 5504 5502 5509 5508 5509 5508 5509 5502 5504 5505 5515 5513 5518 5520 5517 5528 5533 5531 5526 5513 5499 5515 5518 5524 5525 5528 5552 5557 5551 5524 5542 5539 5573 5601 5623 5633 5632 5633 5634 5628 5625 5622
5490 5497 5500 5505 5507 5508 5507 5512 5510 5506 5505 5507 5507 5524 5524 5517 5532 5535 5537 5539 5531 5521 5510 5512 5514 5509 5532 5551 5544 5549 5558 5558 5547 5539 5540 5566 5618 5631 5627 5628 5627 5629 5628 5625 5622
5487 5497 5508 5502 5509 5505 5512 5512 5514 5515 5513 5515 5517 5519 5526 5531 5532 5538 5542 5550 5547 5538 5530 5518 5514 5530 5559 5570 5561 5565 5572 5548 5550 5567 5563 5591 5621 5628 5632 5632 5626 5626 5630 5628 5625